Location: *
(34.0486°S, 61.7880°E)
Time: 12:13:56
(UTC+00:00)

Cosmos 1726 - Pass Details

Date: 01 April 2020
Orbit: 482 x 499 km, 82.5° (Epoch: 04 June)

Event Time Altitude Azimuth Distance (km) Brightness Sun altitude
Rises 15:21:54 0° 189° (S) 2,601 6.0 -20.4°
Reaches altitude 10° 15:24:02 10° 191° (S) 1,713 5.1 -20.8°
Maximum altitude 15:27:46 71° 275° (W) 532 2.3 -21.6°
Enters shadow 15:29:29 30° 352° (N) 916 3.4 -21.9°
